Regional Weather Roundup
Issued by NWS Goodland, KS

Home | Current Version | Previous Version | Text Only | Print | Product List | Glossary Off
Versions: 1 2 3 4 5 6 7 8 9 10 11 12 13 14 15 16 17 18 19 20 21 22 23 24 25 26 27 28 29 30 31 32 33 34 35 36 37 38 39 40 41 42 43 44 45 46 47 48 49 50

000
ASUS43 KGLD 011808
RWRGLD

GOODLAND FORECAST AREA HOURLY WEATHER ROUNDUP
NATIONAL WEATHER SERVICE GOODLAND KS
1200 PM MDT WED OCT 01 2014

...OFFICIAL OBSERVATIONS...

CITY           SKY/WX    TMP DP  RH WIND       PRES   REMARKS
GOODLAND KS    MOSUNNY   71  44  37 N8        29.85F
HILL CITY KS   FAIR      73  59  61 VRB3      29.78F
IMPERIAL NEB   MOSUNNY   68  46  45 NE8       29.84F
MCCOOK NEB     PTSUNNY   72  48  42 MISG      29.81F
AKRON CO       MOSUNNY   62  43  49 NE7       29.89F
BURLINGTON CO  SUNNY     69  41  36 NE9       29.87F
LIMON CO       MOSUNNY   64  36  35 SE8       29.91F
$$

...UNOFFICIAL OBSERVATIONS...

CITY           SKY/WX    TMP DP  RH WIND       PRES   REMARKS
COLBY KS       SUNNY     72  48  43 N3        29.83F
GOVE KS          N/A     75  32  20 MISG        N/A
NORTON KS      SUNNY     73  54  49 CALM      29.78
SHARON SPRINGS   N/A     73  46  38 NE6         N/A
TRENTON NEB      N/A     71  32  23 NW7         N/A
KIT CARSON CO    N/A     68  44  41 MISG        N/A
YUMA CO          N/A     66  47  51 NE8         N/A
$$


USA.gov is the U.S. government's official web portal to all federal, state and local government web resources and services.